Welcome to the New NWS' Forecast!
Most changes are behind the scenes, but click here for differences you might notice.

Regional Weather Roundup (RWR)

Issued by National Weather Service (NWS)

                            
000
ASUS46 KSEW 151810
RWRWA 

WASHINGTON REGIONAL WEATHER ROUNDUP
NATIONAL WEATHER SERVICE SEATTLE WA
1000 AM PST THU NOV 15 2018

NOTE:"FAIR" INDICATES FEW OR NO CLOUDS BELOW 12,000 FEET WITH NO 
SIGNIFICANT WEATHER AND/OR OBSTRUCTIONS TO VISIBILITY.

WAZ507-509-555>559-151900-
SEATTLE, TACOMA, EVERETT, AND VICINITY
  
CITY           SKY/WX    TMP DP  RH WIND       PRES   REMARKS
EVERETT        CLOUDY    50  47  89 SE7       30.33F                  
6HR MIN TEMP:  49; 6HR MAX TEMP:  50;                                

BOEING FIELD   CLOUDY    52  46  80 S5        30.34F                  
6HR MIN TEMP:  49; 6HR MAX TEMP:  52;                                

RENTON         CLOUDY    53  46  77 S6        30.33F                  
6HR MIN TEMP:  50; 6HR MAX TEMP:  54; 6HR PCP: TRACE;                

SEATAC AIRPORT PTSUNNY   51  45  79 S6        30.33F                  
6HR MIN TEMP:  49; 6HR MAX TEMP:  52;                                

JBLM-MCCHORD   MOSUNNY   51  50  94 S6        30.34F                  
6HR MIN TEMP:  46; 6HR MAX TEMP:  51;                                

PUYALLUP       FAIR      54  46  76 CALM      30.34S                  
BREMERTON      CLOUDY    49  47  93 S7        30.33F                  
6HR MIN TEMP:  47; 6HR MAX TEMP:  49;                                

JBLM-FT LEWIS  MOSUNNY   50  49  96 SE7       30.33F                  
6HR MIN TEMP:  43; 6HR MAX TEMP:  50;                                

TACOMA NARROWS CLOUDY    49  45  86 CALM      30.35R                  
6HR MIN TEMP:  48; 6HR MAX TEMP:  49;                                

$$
 
WAZ001-503-506-510-514-515-151900-
NORTH INTERIOR
  
CITY           SKY/WX    TMP DP  RH WIND       PRES   REMARKS
BELLINGHAM     CLOUDY    52  46  80 S13G21    30.29F                  
6HR MIN TEMP:  49; 6HR MAX TEMP:  52; 6HR PCP: TRACE;                

FRIDAY HARBOR  CLOUDY    51  48  89 SE8       30.31F                  
6HR MIN TEMP:  49; 6HR MAX TEMP:  51; 6HR PCP: TRACE;                

EASTSOUND      LGT RAIN  52  48  87 S14       30.29S                  
PORT ANGELES   CLOUDY    50  43  77 SW5       30.30F                  
6HR MIN TEMP:  45; 6HR MAX TEMP:  50;                                

EDIZ HOOK      FAIR      48  45  89 CALM      30.31S                  
6HR MIN TEMP:  46; 6HR MAX TEMP:  48;                                

PORT TOWNSEND  FAIR      48  48 100 SE6       30.31F                  
NAS WHIDBEY    LGT RAIN  54  48  80 SE13      30.35F                  
6HR MIN TEMP:  50; 6HR MAX TEMP:  54; 6HR PCP: TRACE;                

ARLINGTON      CLOUDY    51  48  89 SE6       30.34F                  
6HR MIN TEMP:  46; 6HR MAX TEMP:  51;                                

BURLINGTON     CLOUDY    52  52 100 SE6       30.32F                  
$$
 
WAZ020-022-039-040-504-511-512-151900-
SOUTHWEST INTERIOR
  
CITY           SKY/WX    TMP DP  RH WIND       PRES   REMARKS
SHELTON        CLOUDY    52  48  86 SW10      30.32S                  
6HR MIN TEMP:  47; 6HR MAX TEMP:  52;                                

OLYMPIA        CLOUDY    47  45  93 W7        30.35F                  
6HR MIN TEMP:  37; 6HR MAX TEMP:  47;                                

CHEHALIS       CLOUDY    45  45 100 S3        30.36S FOG              
KELSO          FOG       45  45 100 CALM      30.37S VSB 1/4          
6HR MIN TEMP:  43; 6HR MAX TEMP:  46;                                

VANCOUVER      MOSUNNY   47  44  90 CALM      30.36S                  
6HR MIN TEMP:  46; 6HR MAX TEMP:  48;                                

SCAPPOOSE, OR  CLOUDY   N/A N/A N/A CALM      30.36S                  
6HR MIN TEMP:  45; 6HR MAX TEMP:  50;                                

PORTLAND, OR   FOG       48  45  89 CALM      30.36F VSB 3/4          
6HR MIN TEMP:  46; 6HR MAX TEMP:  48;                                

$$
 
WAZ021-516-517-151900-
WASHINGTON COAST
  
CITY           SKY/WX    TMP DP  RH WIND       PRES   REMARKS
FORKS          CLOUDY    50  49  96 VRB7      30.32F                  
6HR MIN TEMP:  47; 6HR MAX TEMP:  50;                                

HOQUIAM        CLOUDY    50  49  96 E3        30.35S FOG              
6HR MIN TEMP:  47; 6HR MAX TEMP:  51;                                

ASTORIA, OR    CLOUDY    46  46 100 CALM      30.35F FOG              
6HR MIN TEMP:  40; 6HR MAX TEMP:  46;                                

$$
 
WAZ019-023-024-040-567>569-151900-
CASCADE MOUNTAINS AND COLUMBIA GORGE
  
CITY           SKY/WX    TMP DP  RH WIND       PRES   REMARKS
STAMPEDE PASS  NOT AVBL                                               
TROUTDALE, OR  CLOUDY    46  44  93 E5        30.36S                  
6HR MIN TEMP:  45; 6HR MAX TEMP:  47;                                

HOOD RIVER, OR FOG       39  39 100 CALM      30.35F VSB 1/2          
THE DALLES, OR CLOUDY    44  40  85 CALM      30.36F                  
6HR MIN TEMP:  35; 6HR MAX TEMP:  44;                                

$$

WAZ026-027-041>044-520-521-151900-
EAST SLOPES
  
CITY           SKY/WX    TMP DP  RH WIND       PRES   REMARKS
OMAK           CLOUDY    32  30  92 SE6       30.34F                  
6HR MIN TEMP:  31; 6HR MAX TEMP:  32;                                

WENATCHEE      MOSUNNY   36  31  82 SE7       30.32F                  
6HR MIN TEMP:  32; 6HR MAX TEMP:  36;                                

ELLENSBURG     SUNNY     49  38  65 S3        30.28F                  
6HR MIN TEMP:  42; 6HR MAX TEMP:  49;                                

YAKIMA         SUNNY     37  31  78 CALM      30.34S HAZE             
6HR MIN TEMP:  22; 6HR MAX TEMP:  37;                                

SUNNYSIDE ARPT FOG       31  31 100 CALM      30.37  VSB<1/4          
6HR MIN TEMP:  25; 6HR MAX TEMP:  31;                                

YAKIMA TC      FAIR      38  32  79 CALM      30.31S                  
6HR MIN TEMP:  28; 6HR MAX TEMP:  38;                                

$$

WAZ028-034-035-151900-
COLUMBIA BASIN
  
CITY           SKY/WX    TMP DP  RH WIND       PRES   REMARKS
EPHRATA        PTSUNNY   36  32  85 CALM      30.33F                  
6HR MIN TEMP:  32; 6HR MAX TEMP:  37;                                

MOSES LAKE     PTSUNNY   37  29  72 CALM      30.34F                  
6HR MIN TEMP:  29; 6HR MAX TEMP:  37;                                

PASCO          MOSUNNY   37  32  82 VRB5      30.39F                  
6HR MIN TEMP:  24; 6HR MAX TEMP:  38;                                

RICHLAND ARPT  CLOUDY    36  34  90 N3        30.39  FOG              
6HR MIN TEMP:  26; 6HR MAX TEMP:  37;                                

HERMISTON, OR  SUNNY     43  36  76 CALM      30.34F                  
6HR MIN TEMP:  28; 6HR MAX TEMP:  43;                                

$$

WAZ036>038-151900-
NORTHEAST WASHINGTON
  
CITY           SKY/WX    TMP DP  RH WIND       PRES   REMARKS
SPOKANE GEIGER FOG       34  32  92 NE3       30.30F VSB 1/8          
6HR MIN TEMP:  27; 6HR MAX TEMP:  34;                                

SPOKANE FELTS  CLOUDY    35  31  85 CALM      30.32F FOG              
6HR MIN TEMP:  27; 6HR MAX TEMP:  35;                                

FAIRCHILD AFB  FOG       35  35 100 CALM      30.28F VSB 1/8          
6HR MIN TEMP:  25; 6HR MAX TEMP:  35;                                

COEURDALENE,ID CLOUDY    38  37  97 CALM      30.31F                  
6HR MIN TEMP:  24; 6HR MAX TEMP:  38;                                

DEER PARK      CLOUDY    34  32  92 CALM      30.32F FOG              
6HR MIN TEMP:  22; 6HR MAX TEMP:  34;                                

$$

WAZ029>033-151900-
SOUTHEAST WASHINGTON
  
CITY           SKY/WX    TMP DP  RH WIND       PRES   REMARKS
PULLMAN        CLOUDY    48  38  68 SE6       30.31F                  
6HR MIN TEMP:  35; 6HR MAX TEMP:  48;                                

LEWISTON, ID   SUNNY     47  36  65 N3        30.33F                  
6HR MIN TEMP:  37; 6HR MAX TEMP:  47;                                

WALLA WALLA    SUNNY     38  32  79 CALM      30.33F HAZE             
6HR MIN TEMP:  31; 6HR MAX TEMP:  38;                                

PENDLETON, OR  SUNNY     47  38  71 SE5       30.31F                  
6HR MIN TEMP:  33; 6HR MAX TEMP:  47;                                

$$